Satellite: UO-22
Catalog number: 21575
Epoch time:      04329.98096618
Element set:     263
Inclination:       98.2149 deg
RA of node:       297.3522 deg
Eccentricity:    0.0007171
Arg of perigee:   353.9505 deg
Mean anomaly:       6.1611 deg
Mean motion:   14.39438258 rev/day
Decay rate:       1.77e-06 rev/day^2
Epoch rev:           70112
Checksum:              307

Satellite: KO-23
Catalog number: 22077
Epoch time:      04330.76749123
Element set:     322
Inclination:       66.0880 deg
RA of node:       212.4615 deg
Eccentricity:    0.0012261
Arg of perigee:   304.7657 deg
Mean anomaly:      55.2198 deg
Mean motion:   12.86427536 rev/day
Decay rate:       -3.7e-07 rev/day^2
Epoch rev:           57742
Checksum:              293

Satellite: AO-27
Catalog number: 22825
Epoch time:      04329.96634130
Element set:     997
Inclination:       98.2439 deg
RA of node:       330.3833 deg
Eccentricity:    0.0009129
Arg of perigee:   142.9783 deg
Mean anomaly:     217.2038 deg
Mean motion:   14.29099888 rev/day
Decay rate:       1.81e-06 rev/day^2
Epoch rev:           58205
Checksum:              337

Satellite: IO-26
Catalog number: 22826
Epoch time:      04330.59216198
Element set:     666
Inclination:       98.2413 deg
RA of node:       332.2639 deg
Eccentricity:    0.0009504
Arg of perigee:   139.1511 deg
Mean anomaly:     221.0379 deg
Mean motion:   14.29337414 rev/day
Decay rate:        7.9e-07 rev/day^2
Epoch rev:           58220
Checksum:              297

Satellite: KO-25
Catalog number: 22828
Epoch time:      04329.86440549
Element set:     930
Inclination:       98.2354 deg
RA of node:       331.8035 deg
Eccentricity:    0.0010745
Arg of perigee:   121.0800 deg
Mean anomaly:     239.1432 deg
Mean motion:   14.29655229 rev/day
Decay rate:        9.6e-07 rev/day^2
Epoch rev:           55032
Checksum:              292

Satellite: TO-31
Catalog number: 25396
Epoch time:      04330.73462278
Element set:     111
Inclination:       98.5580 deg
RA of node:        37.8308 deg
Eccentricity:    0.0003366
Arg of perigee:    65.7127 deg
Mean anomaly:     294.4424 deg
Mean motion:   14.23645532 rev/day
Decay rate:       -4.3e-07 rev/day^2
Epoch rev:           33146
Checksum:              291

Satellite: GO-32
Catalog number: 25397
Epoch time:      04330.73482316
Element set:     609
Inclination:       98.5495 deg
RA of node:        35.7283 deg
Eccentricity:    0.0002110
Arg of perigee:    81.1023 deg
Mean anomaly:     279.0424 deg
Mean motion:   14.23060617 rev/day
Decay rate:        5.2e-07 rev/day^2
Epoch rev:           33139
Checksum:              272

Satellite: UO-36
Catalog number: 25693
Epoch time:      04330.73937974
Element set:     676
Inclination:       64.5590 deg
RA of node:       188.4778 deg
Eccentricity:    0.0042640
Arg of perigee:   237.8332 deg
Mean anomaly:     121.8628 deg
Mean motion:   14.78424446 rev/day
Decay rate:        1.0e-07 rev/day^2
Epoch rev:           30174
Checksum:              327

Satellite: SO-41
Catalog number: 26545
Epoch time:      04330.59120725
Element set:     936
Inclination:       64.5583 deg
RA of node:       204.7157 deg
Eccentricity:    0.0027634
Arg of perigee:   340.7226 deg
Mean anomaly:      19.2838 deg
Mean motion:   14.79940891 rev/day
Decay rate:       3.56e-06 rev/day^2
Epoch rev:           22479
Checksum:              320

Satellite: MO-46
Catalog number: 26548
Epoch time:      04330.01549547
Element set:      37
Inclination:       64.5579 deg
RA of node:       191.6447 deg
Eccentricity:    0.0026863
Arg of perigee:   327.2301 deg
Mean anomaly:      32.7129 deg
Mean motion:   14.82517674 rev/day
Decay rate:       5.49e-06 rev/day^2
Epoch rev:           22501
Checksum:              308

Satellite: SO-42
Catalog number: 26549
Epoch time:      04330.08921829
Element set:     994
Inclination:       64.5570 deg
RA of node:       213.7770 deg
Eccentricity:    0.0027590
Arg of perigee:   351.1604 deg
Mean anomaly:       8.9001 deg
Mean motion:   14.78828651 rev/day
Decay rate:       4.47e-06 rev/day^2
Epoch rev:           22457
Checksum:              313

Satellite: NO-44
Catalog number: 26931
Epoch time:      04330.42065487
Element set:     906
Inclination:       67.0548 deg
RA of node:        32.5837 deg
Eccentricity:    0.0007244
Arg of perigee:   267.8002 deg
Mean anomaly:      92.2238 deg
Mean motion:   14.29341054 rev/day
Decay rate:       -7.8e-07 rev/day^2
Epoch rev:           16464
Checksum:              297

Satellite: AO-49
Catalog number: 27605
Epoch time:      04330.65751133
Element set:     594
Inclination:       64.5599 deg
RA of node:        34.1206 deg
Eccentricity:    0.0085160
Arg of perigee:   279.7926 deg
Mean anomaly:      79.3567 deg
Mean motion:   14.71982256 rev/day
Decay rate:       3.09e-06 rev/day^2
Epoch rev:           10389
Checksum:              333

Satellite: SO-50
Catalog number: 27607
Epoch time:      04330.68086769
Element set:     576
Inclination:       64.5610 deg
RA of node:        38.5610 deg
Eccentricity:    0.0086096
Arg of perigee:   278.7500 deg
Mean anomaly:      80.3863 deg
Mean motion:   14.70802082 rev/day
Decay rate:       5.51e-06 rev/day^2
Epoch rev:           10380
Checksum:              301

